Location: Marshall
(39.8477°N, 87.1868°W)
Time: 02:38:14
(UTC+00:00)

Envisat - Pass Details

Date: 14 May 2026
Orbit: 761 x 763 km, 98.4° (Epoch: 9 June)

Event Time Altitude Azimuth Distance (km) Brightness Sun altitude
Rises 07:53:36 0° 20° (NNE) 3,231 7.5 -24.3°
Reaches altitude 10° 07:56:02 10° 27° (NNE) 2,300 6.5 -24.0°
Maximum altitude 08:00:50 42° 99° (E) 1,071 3.9 -23.5°
Enters shadow 08:02:49 29° 148° (SSE) 1,361 4.1 -23.3°
